This demonstration page uses our WeatherBlox Daily Observations layout. Learn more.

Left ArrowRight Arrow

Hourly Observations for June 5, 2020

Temp ( °F °C ) Dew Point ( °F °C ) Humidity (%) Winds ( mph kmh ) Pressure ( in mb ) Visibility ( mi km ) Precip ( " mm )
12:47 am 00:47 Cloudy with Thunderstorms 81 27 70 21 70 70 WSW 7 11 29.74 1007 10 16 0.00 0.00
12:56 am 00:56 Cloudy with Thunderstorms 78 25.7 67 19.3 68 68 SSE 7 11 29.71 1006 6 10 0.00 0.00
1:09 am 01:09 Clear 73 23 66 19 78 78 S 17 28 29.70 1006 10 16 0.00 0.00
1:27 am 01:27 Partly Cloudy 72 22 66 19 83 83 SE 13 20 29.65 1004 10 16 0.00 0.00
1:56 am 01:56 Mostly Clear 73 22.9 64 17.6 72 72 WNW 7 11 29.71 1006 10 16 0.00 0.00
2:56 am 02:56 Clear 72 22.1 63 17.4 75 75 SE 5 7 29.71 1006 10 16 0.00 0.00
3:56 am 03:56 Clear 71 21.6 64 17.6 78 78 NNW 6 9 29.76 1008 10 16 0.00 0.00
4:56 am 04:56 Clear 71 21.8 63 17.4 76 76 Calm 29.77 1008 10 16 0.00 0.00
5:56 am 05:56 Sunny 67 19.7 64 17.5 87 87 Calm 29.80 1009 10 16 0.00 0.00
6:56 am 06:56 Cloudy 68 19.9 66 18.7 93 93 Calm 29.83 1010 10 16 0.00 0.00
7:56 am 07:56 Sunny 76 24.2 67 19.7 76 76 Calm 29.82 1010 10 16 0.00 0.00
8:56 am 08:56 Cloudy 76 24.3 66 19.1 73 73 SW 3 6 29.87 1011 10 16 0.00 0.00
9:56 am 09:56 Mostly Cloudy 79 25.9 67 19.5 68 68 W 3 6 29.86 1011 10 16 0.00 0.00
10:56 am 10:56 Cloudy 85 29.5 69 20.6 59 59 NNW 6 9 29.87 1012 10 16 0.00 0.00
11:56 am 11:56 Sunny 87 30.5 67 19.5 52 52 NNE 5 7 29.89 1012 10 16 0.00 0.00
12:56 pm 12:56 Sunny 89 31.8 67 19.4 48 48 NNE 6 9 29.88 1012 10 16 0.00 0.00
1:56 pm 13:56 Sunny 92 33.4 68 19.8 45 45 N 3 6 29.88 1012 10 16 0.00 0.00
2:56 pm 14:56 Sunny 94 34.2 64 17.8 38 38 ESE 3 6 29.87 1012 10 16 0.00 0.00
3:56 pm 15:56 Sunny 94 34.4 65 18.4 39 39 E 7 11 29.86 1011 10 16 0.00 0.00
4:56 pm 16:56 Sunny 93 34.1 67 19.3 42 42 S 7 11 29.85 1011 10 16 0.00 0.00
5:56 pm 17:56 Sunny 92 33.4 65 18.3 41 41 SSE 10 17 29.87 1011 10 16 0.00 0.00
6:56 pm 18:56 Sunny 91 32.8 65 18.2 42 42 S 9 15 29.85 1011 10 16 0.00 0.00
7:56 pm 19:56 Sunny 88 30.9 67 19.5 51 51 SE 12 19 29.87 1012 10 16 0.00 0.00
8:56 pm 20:56 Clear 82 27.9 65 18.6 57 57 NE 12 19 29.89 1012 10 16 0.00 0.00
9:56 pm 21:56 Partly Cloudy 79 26 68 19.8 69 69 ENE 8 13 29.91 1013 10 16 0.00 0.00
10:56 pm 22:56 Mostly Cloudy 78 25.5 68 19.8 71 71 NE 7 11 29.92 1013 10 16 0.00 0.00
11:56 pm 23:56 Partly Cloudy 77 25 68 19.8 73 73 ENE 6 9 29.93 1014 10 16 0.00 0.00

Powered by AerisWeather